Погода в Сергиевке

Россия / Белгородская область     51°12′25″N   37°28′53″E
темп.,
°C
ветер,
м/с
пор.,
м/с
влажн.,
%
обл.,
%
осадки,
мм/ч
давл.,
гПа
погр.,
м
22 января, сб
сб2200:00−5ююз7159187 0.1 1005533
03:00−6ююз7139284 0.1 1005451
06:00−6ююз6129385 0.0 1005329
09:00−7ююз5119486 0.1 1007308
12:00−6ююз51095100 0.1 1009407
15:00−5ююз4994100 0.1 1010457
18:00−7ю2697100 0.1 1012113
21:00−6ю3796100 0.1 1014205
23 января, вс
вс2300:00−8ю249788 0.1 101582
03:00−14ю22100100 0.1 101816
06:00−14ююв2210099 0.1 101916
09:00−8вюв1296100 0.1 1021147
12:00−7св2294100 0.1 1023284
15:00−7св3696100 0.1 1024285
18:00−10ссв3797100 0.0 1027131
21:00−10ссв4129479 0.0 1027271
24 января, пн
пн2400:00−9ссв61593100 0.0 1027342
03:00−8ссв71694100 0.3 1027451
06:00−7св61494100 0.4 1026430
09:00−6св61394100 0.6 1028532
12:00−5св61293100 0.1 1028587
15:00−6всв51092100 0.1 1028502
18:00−9св489590 0.0 1028182
21:00−10св389691 0.0 1029215
25 января, вт
вт2500:00−12св3798100 0.0 1028135
03:00−12св2598100 0.1 1026110
06:00−10св2596100 0.3 1025155
09:00−11всв2597100 0.3 1025136
12:00−7вюв2393100 0.2 1023231
15:00−6юв239395 0.5 1022302
18:00−9вюв119878 0.2 102111
21:00−11ю229991 0.3 102127
26 января, ср
ср2600:00−11ю259785 0.1 102087
03:00−9ююв3796100 0.3 1019190
06:00−9ю389694 0.3 1019246
09:00−10ю389697 0.4 1018314
12:00−8ююз4790100 0.1 1018466
15:00−7ююз369196 0.3 1018510
18:00−12ю1199100 0.1 102010
21:00−14ююв22100100 0.1 102110